Regional Weather Roundup
Issued by NWS

Home | Current Version | Previous Version | Graphics & Text | Print | Product List | Glossary Off
Versions: 1 2 3 4 5 6 7 8 9 10 11 12 13 14 15 16 17 18 19 20 21 22 23 24 25 26 27 28 29 30 31 32 33 34 35 36 37 38 39 40 41 42 43 44 45 46 47 48 49 50

000
ASUS43 KDTX 072110
RWRMI
MICHIGAN HOURLY REGIONAL WEATHER ROUNDUP
NATIONAL WEATHER SERVICE DETROIT/PONTIAC MI
400 PM EST WED DEC 07 2016

NOTE: "FAIR" INDICATES FEW OR NO CLOUDS BELOW 12,000 FEET WITH NO
SIGNIFICANT WEATHER AND/OR OBSTRUCTION TO VISIBILITY.

MIZ047>049-052>055-059>063-066>070-074>076-081>083-072200-
SOUTHEAST LOWER MICHIGAN

CITY           SKY/WX    TMP DP  RH WIND       PRES   REMARKS
ADRIAN         PTCLDY    32  25  75 W9        30.03S WCI  24
ALMA           MOCLDY    33  22  62 SW15G21   29.96R WCI  23
ANN ARBOR      FLURRIES  35  24  64 SW13      29.99S WCI  26
BAD AXE        PTCLDY    34  22  61 SW20G25   29.91R WCI  23
CARO           PTCLDY    36  24  63 SW16G22   29.93R WCI  26
DETROIT CITY   CLEAR     35  25  66 SW14      29.99S WCI  26
DETROIT        PTCLDY    36  25  64 SW17      30.01S WCI  26
FLINT          PTCLDY    37  22  54 SW12      29.96R WCI  29
GROSSE ILE     PTCLDY    34  24  67 SW10G23   30.01S WCI  26
HILLSDALE      CLOUDY    32  23  69 SW10      30.01R WCI  24
HOWELL         CLOUDY    36  23  59 SW13G18   29.97R WCI  27

CITY           SKY/WX    TMP DP  RH WIND       PRES   REMARKS
JACKSON        CLOUDY    34  23  64 SW15      30.00R WCI  24
LAMBERTVILLE   CLEAR     35  23  62 W8        30.05R WCI  28
LANSING        PTCLDY    35  21  56 W16       29.99R WCI  25
LAPEER         NOT AVBL
MASON          MOCLDY    35  24  65 SW10G17   29.99R WCI  27
MONROE         PTCLDY    33  25  73 SW13G18   30.03R WCI  24
MT. CLEMENS    PTCLDY    36  26  66 SW15      29.96R WCI  27
PONTIAC        MOCLDY    37  23  56 SW17      29.95R WCI  27
PORT HOPE        N/A     35  23  61 SW10G22   29.88R WCI  27
PORT HURON     PTCLDY    37  25  60 SW6       29.96R WCI  33
TRI CITIES     CLEAR     35  24  64 W20G29    29.94R WCI  24
MIDLAND        MOCLDY    35  20  54 SW20G26   29.92S WCI  25
TROY           CLEAR     36  25  63 SW12      29.99S WCI  28
SAGINAW HB     CLEAR     36  21  55 W21G26    29.94R WCI  24
$$
MIZ043>046-050>051-056>058-064>065-071>073-077>080-072200-
SOUTHWEST LOWER MICHIGAN

CITY           SKY/WX    TMP DP  RH WIND       PRES   REMARKS
BATTLE CREEK   CLOUDY    33  24  69 W16       30.02R WCI  23
BENTON HARBOR  PTSUNNY   34  22  61 W15G23    30.05S WCI  24
BIG RAPIDS     CLOUDY    32  21  64 W15G21    29.92S WCI  22
COLDWATER      CLOUDY    32  22  66 SW13      30.03R WCI  23
FREMONT        CLOUDY    31  20  63 W15G21    29.97R WCI  20
HOLLAND        CLOUDY    34  25  69 W16G28    30.01S WCI  24
GRAND RAPIDS   CLOUDY    33  24  69 SW20G29   30.00R WCI  21
IONIA          CLOUDY    33  24  71 W21       29.98R WCI  20
KALAMAZOO      CLOUDY    33  22  63 W15       30.03R WCI  23
LUDINGTON      CLOUDY    29  22  75 W15G21    29.95S WCI  18
MARSHALL       CLOUDY    34  23  65 SW16      30.01R WCI  23
MOUNT PLEASANT MOCLDY    33  22  64 SW15G25   29.93S WCI  22
MUSKEGON       CLOUDY    33  24  69 W14G23    30.00R WCI  23
SOUTH HAVEN    MOCLDY    33  25  71 W13G20    30.03F WCI  24
$$
MIZ016>042-072200-
NORTHERN LOWER MICHIGAN

CITY           SKY/WX    TMP DP  RH WIND       PRES   REMARKS
ALPENA         CLEAR     33  17  51 W13       29.83R WCI  24
BEAVER ISLAND  CLOUDY    29  21  70 W23G32    29.79R WCI  16
BELLAIRE       CLOUDY    30  21  71 SW10G22   29.87R WCI  21
CADILLAC       CLOUDY    26  19  72 SW18G26   29.87R WCI  13
CHARLEVOIX     CLOUDY    30  21  69 SW17G32   29.85R WCI  18
FRANKFORT      CLOUDY    29  21  73 W15       29.90S WCI  18
GAYLORD        CLOUDY    27  17  66 SW21G33   29.81R WCI  13
GRAYLING       MOCLDY    29  19  66 SW17G25   29.85R WCI  17
HARBOR SPRINGS CLOUDY    31  23  73 SW20G30   29.80S WCI  18
HOUGHTON LAKE  PTCLDY    30  19  63 W16G24    29.86S WCI  19
MANISTEE       CLOUDY    28  21  75 SW10      29.93R WCI  19
OSCODA         PTCLDY    35  18  50 MISG      29.85S
PELLSTON       FLURRIES  30  19  63 SW18G29   29.80R WCI  18
ROGERS CITY    CLOUDY    32  19  59 SW15G24   29.82R WCI  22
TRAVERSE CITY  FLURRIES  30  19  63 SW14G24   29.88R WCI  19
$$
MIZ007>008-015-072200-
EASTERN UPPER MICHIGAN

CITY           SKY/WX    TMP DP  RH WIND       PRES   REMARKS
MACKINAC ISLAN CLOUDY    30  22  72 SW21G38   29.77R WCI  17
NEWBERRY       CLOUDY    25  14  63 W9G21     29.76R WCI  16
MUNISING         N/A     26  12  55 W7        29.77R WCI  18
$$
MIZ004>006-011>014-085-072200-
CENTRAL UPPER MICHIGAN

CITY           SKY/WX    TMP DP  RH WIND       PRES   REMARKS
MANISTIQUE     CLOUDY    26  12  56 W9G20     29.79R WCI  17
SAWYER-GWINN   CLOUDY    21  12  68 W17G24      N/A  WCI   7
$$
MIZ001>003-009>011-084-072200-
WESTERN UPPER MICHIGAN

CITY           SKY/WX    TMP DP  RH WIND       PRES   REMARKS
$$

ABBREVIATIONS USED IN REMARKS
   TC - TEMPERATURE IN CELSIUS
  WCI - WIND CHILL INDEX
   HX - HEAT INDEX
  VSB - VISIBILITY




USA.gov is the U.S. government's official web portal to all federal, state and local government web resources and services.